Location: Fours
(44.3167°N, 6.7000°E)
Time: 21:18:06
(UTC+00:00)

ARGOS - Pass Details

Date: 16 October 2021
Orbit: 820 x 835 km, 98.4° (Epoch: 29 November)

Event Time Altitude Azimuth Distance (km) Brightness Sun altitude
Rises 17:28:01 0° 150° (SSE) 3,351 6.1 -8.0°
Reaches altitude 10° 17:30:24 10° 145° (SE) 2,424 5.3 -8.5°
Maximum altitude 17:35:36 52° 70° (ENE) 1,021 3.3 -9.4°
Drops below altitude 10° 17:40:51 10° 356° (N) 2,449 5.6 -10.3°
Sets 17:43:15 0° 351° (N) 3,389 6.4 -10.8°
